Location: Unspecified
(0.0000°N, 0.0000°E)
Time: 15:47:34
(UTC+00:00)

CZ-4 DEB - Pass Details

Date: 18 June 2024
Orbit: 785 x 976 km, 99.1° (Epoch: 18 July)

Event Time Altitude Azimuth Distance (km) Brightness Sun altitude
Exits shadow 19:29:30 35° 102° (ESE) 1,502 ? -20.1°
Maximum altitude 19:30:43 38° 76° (ENE) 1,422 ? -20.4°
Drops below altitude 10° 19:36:17 10° 10° (N) 2,706 ? -21.7°
Sets 19:38:55 0° 3° (N) 3,658 ? -22.3°
